Regional Weather Roundup
Issued by NWS

Home | Current Version | Previous Version | Text Only | Print | Product List | Glossary On
Versions: 1 2 3 4 5 6 7 8 9 10 11 12 13 14 15 16 17 18 19 20 21 22 23 24 25 26 27 28 29 30 31 32 33 34 35 36 37 38 39 40 41 42 43 44 45 46 47 48 49 50
000
ASUS43 KMKX 070800
RWRWI

WISCONSIN REGIONAL WEATHER ROUNDUP
NATIONAL WEATHER SERVICE MILWAUKEE/SULLIVAN WI
300 AM CDT THU MAY 07 2015

NOTE: "FAIR" INDICATES FEW OR NO CLOUDS BELOW 12,000 FEET WITH NO
SIGNIFICANT WEATHER AND/OR OBSTRUCTIONS TO VISIBILITY.

WIZ001-002-006>008-014>016-023>028-070900-
NORTHWEST WISCONSIN

CITY           SKY/WX    TMP DP  RH WIND       PRES   REMARKS
SUPERIOR ARPT  MOCLDY    41  39  92 NE5       29.90F
ASHLAND        CLOUDY    50  49  96 CALM      29.91F
HAYWARD        PTCLDY    62  57  83 SE9       29.91F
SIREN          CLEAR     63  57  81 SE6       29.88R
CUMBERLAND     MOCLDY    59  55  88 SE7       29.90F
RICE LAKE      MOCLDY    61  57  87 SE10      29.92S
CHETEK         PTCLDY    61  59  92 E9        29.91F
LADYSMITH      CLOUDY    62  60  91 SE8       29.96F
EAU CLAIRE     NOT AVBL
MENOMONIE      PTCLDY    61  59  94 E8        29.90F
NEW RICHMOND   MOCLDY    62  57  83 SE8       29.87F
OSCEOLA        MOCLDY    63  59  86 SE10      29.88F
$$

WIZ003>005-009-010-017-018-070900-
NORTH CENTRAL WISCONSIN

CITY           SKY/WX    TMP DP  RH WIND       PRES   REMARKS
MANITOWISH WTR MOCLDY    59  57  92 S8        29.98F
ARBOR VITAE    PTCLDY    59  55  87 S8        30.00F
WOODRUFF       PTCLDY    59  55  87 S8        30.00F
RHINELANDER    PTCLDY    58  54  86 S5        30.02F
EAGLE RIVER    CLEAR     57  54  89 SE7       30.01F
LAND O LAKES   PTCLDY    56  53  88 SE6       30.02F
PHILLIPS       CLEAR     60  57  91 SE8       29.96F
TOMAHAWK       MOCLDY    57  54  91 SE5       30.01F FOG
MEDFORD        MOCLDY    59  56  92 SE5       29.98F FOG
MERRILL        CLOUDY    58  56  94 SE6       30.01F FOG
$$

WIZ029-030-035-036-043>047-070900-
CENTRAL WISCONSIN

CITY           SKY/WX    TMP DP  RH WIND       PRES   REMARKS
WAUSAU         CLOUDY    58  55  90 E7        29.99F FOG
MOSINEE        CLOUDY    57  55  94 E7        30.02F FOG
MARSHFIELD     MOCLDY    61  57  87 SE7       29.98F FOG
STEVENS POINT  CLOUDY    59  55  85 SE5       30.02S FOG
WAUPACA        PTCLDY    57  56  95 E5        30.03F FOG
WAUTOMA        NOT AVBL
WISC RAPIDS    MOCLDY    62  56  80 SE6       30.00F
CAMP DOUGLAS   NOT AVBL
$$

WIZ011>013-019>022-031-037>040-048>050-070900-
NORTHEAST WISCONSIN

CITY           SKY/WX    TMP DP  RH WIND       PRES   REMARKS
ANTIGO         MOCLDY    53  52  98 SE3       30.04F FOG
SHAWANO        CLOUDY    53  51  94 E3        30.06F FOG
OCONTO         PTCLDY    45  42  89 CALM      30.05F
STURGEON BAY   PTCLDY    52  43  71 SE7       30.08F
GREEN BAY      CLEAR     50  48  93 CALM      30.05F
MANITOWOC      NOT AVBL
APPLETON       PTCLDY    54  52  94 CALM      30.04F FOG
CLINTONVILLE   PTCLDY    52  52 100 E5        30.04F FOG
OSHKOSH        PTCLDY    56  52  86 S6        30.02F FOG
$$

WIZ032>034-041-042-053>061-070900-
SOUTHWEST WISCONSIN

CITY           SKY/WX    TMP DP  RH WIND       PRES   REMARKS
LA CROSSE      MOCLDY    69  57  65 S8        29.91F
SPARTA         CLOUDY    66  57  72 SE7       29.95F
VIROQUA        CLOUDY    65  58  78 SE13      29.95F
BOSCOBEL       MOCLDY    68  58  70 E6        29.95F
PRAIRIE DU CHI MOCLDY    66  57  72 SE10      29.93F
PLATTEVILLE    PTCLDY    63  58  86 E9        29.98S
$$

WIZ056-057-062-063-064-067-068-070900-
SOUTH CENTRAL WISCONSIN

CITY           SKY/WX    TMP DP  RH WIND       PRES   REMARKS
REEDSBURG      MOCLDY    64  58  82 SE6       29.97F
BARABOO/DELLS  MOCLDY    61  56  83 S7        29.99F HAZE
LONE ROCK      NOT AVBL
MINERAL POINT  PTCLDY    63  57  82 SE8       29.99S
MADISON        CLEAR     61  55  81 S7        30.00F HAZE
MIDDLETON      CLEAR     59  57  93 E5        30.01F
WATERTOWN      CLEAR     52  52 100 E3        30.03F FOG
MONROE         CLEAR     59  55  88 SE9       30.00F FOG
JANESVILLE     CLEAR     57  54  88 SE6       30.01F FOG
$$

WIZ051-052-058>065-066-070>072-070900-
SOUTHEAST WISCONSIN

CITY           SKY/WX    TMP DP  RH WIND       PRES   REMARKS
MILWAUKEE      CLEAR     45  43  93 E3        30.06F
WAUKESHA       FOG       45  45 100 CALM      30.06F VSB 1/4
MILWAUKEE/TIMM CLEAR     45  43  93 CALM      30.07S FOG
RACINE         PTCLDY    45  42  89 E5        30.07F
BURLINGTON     FOG       46  46 100 CALM      30.05F VSB 1/2
KENOSHA        PTCLDY    46  45  96 E5        30.05F FOG
FOND DU LAC    PTCLDY    56  52  86 S8        30.03F
SHEBOYGAN      CLEAR     44  43  96 CALM      30.06S FOG
WEST BEND      FOG       46  46 100 CALM      30.06S VSB<1/4
JUNEAU         CLEAR     54  52  93 SE9       30.04F FOG
$$

LSZ147-162-070900-
LAKE SUPERIOR

STATION/POSITION TIME  TEMP    WIND        PRES    WAVE
                       AIR SEA DIR/SP/G            HT/PER
                 (UTC) (F)     (DEG/KT/KT) (MB)    (FT/S)
W MID LAKE BUOY  0650   43 35  150/  8/  8 1015.0F   1/ 4
DEVILS ISLAND    0700   44      90/  7/  7 1013.6F
PORT WING        0700   40      40/  9/ 10 1012.9S
SAXON HARBOR     0700   67     170/  3/ 12 1012.5F
$$

LMZ867-665-643>646-070900-
LAKE MICHIGAN

STATION/POSITION TIME  TEMP    WIND        PRES    WAVE
                       AIR SEA DIR/SP/G            HT/PER
                 (UTC) (F)     (DEG/KT/KT) (MB)    (FT/S)
CHAMBERS ISLAND  0700   46     350/  1/  2 1018.6S
NORTHPORT PIER   0700   45     140/  4/  4 1018.3F
SISTER BAY       0717   47        CALM       N/A
KEWAUNEE LAKESHO 0700   47      CALM  /  1 1017.5F
SHEBOYGAN LAKESH 0700   48      CALM  /  1 1018.8F
PORT WASHINGTON  0700   48     320/  1/  3 1018.6
ATWATER BUOY     0700   44     340/  4/  4 1019.5S
MILWAUKEE LAKESH 0700   45      40/  5/  6   N/A
KENOSHA   LAKESH 0700   45      CALM  /  2 1018.3S
$$

TC  - TEMPERATURE IN CELSIUS
VSB - VISIBILITY IN STATUTE MILES
WCI - WIND CHILL INDEX
HX  - HEAT INDEX



USA.gov is the U.S. government's official web portal to all federal, state and local government web resources and services.